YUZGU 10 (RS4S) (53321 NORAD) Tracking and Keplerian Element Data

This shows tracking and keplerian element data for the satellite.

Feedback or suggestion? Click here.




ElementValue
Catalog53321
NameYUZGU 10 (RS4S)
Epoch Orbit1053
Epoch Day270.07848106
Epoch Year2022
RAAN190.6438
Inclination51.6404
Eccentricity0.0001896
Argument of Perigee205.3301
Mean Anonmoly154.7597
Mean Motion15.55419669
Decay Rate0.00057276
L11 53321U 98067TZ 22270.07848106 .00057276 00000+0 82627-3 0 9995
L22 53321 51.6404 190.6438 0001896 205.3301 154.7597 15.55419669 10533

Live tracking and technical data element details for YUZGU 10 (RS4S) (NORAD 53321). YUZGU 10 (RS4S) can be tracked NOW for your location showing map with azimuth and elevation plus other details from your city location.

Track the satellite on the map from your city or location and see movement details for azimuth, elevation, latitude, longitude, range, height, and movement on the map or in text.







IsCatalogInMostPopularTable: catalog: 53321, numindb: 6
Update: records affected: 1



GetName: 53321 YUZGU 10 (RS4S)

Hit Count: updated at: Wed, 28 Sep 2022 23:31:30 GMT